Location: Waldport
(44.4270°N, 124.0680°W)
Time: 05:18:12
(UTC-07:00)

Meteor 1-11 - Visible Passes

Search period start: 20 October 2019 00:00
Search period end: 30 October 2019 00:00
Orbit: 841 x 886 km, 81.2° (Epoch: 19 October)

Date Brightness Start Highest point End Pass type
(mag) Time Alt. Az. Time Alt. Az. Time Alt. Az.
20 Oct 4.7 18:43:07 10° N 18:48:31 39° ENE 18:53:55 10° SE visible
20 Oct 6.1 20:26:35 10° NNW 20:31:35 31° W 20:36:36 10° SSW visible
21 Oct 6.1 20:18:30 10° NNW 20:23:31 31° W 20:28:32 10° SSW visible
22 Oct 6.1 20:10:25 10° NNW 20:15:27 32° W 20:20:29 10° SSW visible
23 Oct 6.2 20:02:19 10° NNW 20:07:22 32° W 20:12:25 10° SSW visible
24 Oct 6.2 19:54:15 10° NNW 19:59:18 32° W 20:04:22 10° SSW visible
25 Oct 6.2 19:46:10 10° NNW 19:51:14 32° W 19:56:18 10° SSW visible
26 Oct 5.8 07:15:55 10° SSE 07:21:09 42° E 07:26:29 10° NNE visible
26 Oct 6.2 19:38:06 10° NNW 19:43:11 32° W 19:48:14 10° SSW visible
27 Oct 5.8 07:07:50 10° SSE 07:13:05 42° E 07:18:25 10° NNE visible
27 Oct 6.2 19:30:01 10° NNW 19:35:06 32° W 19:40:11 10° SSW visible
28 Oct 5.7 06:59:46 10° SSE 07:05:00 42° E 07:10:20 10° NNE visible
28 Oct 6.2 19:21:56 10° NNW 19:27:02 33° W 19:32:07 10° SSW visible
29 Oct 5.7 06:51:42 10° SSE 06:56:56 42° E 07:02:16 10° NNE visible
29 Oct 6.2 19:13:52 10° NNW 19:18:58 33° W 19:24:04 10° SSW visible
